When you browse on this site, cookies collect data to enhance your experience and personalize the content and advertising you see.
Visit our Privacy Policy to learn more. By continuing to use the site, you agree to this use of cookies and data.
  • In Lithuania
  • List of Countries
  • For 7 days
  • Water Temperature
  • Satellite Maps
  • Weather Map
  • Weather Widgets
  • user-avatar
    Login

    Hourly Weather Kitzbuhel

    Today, 20 March, Wednesday

    Time Temperature Precipitation Wind Pressure Humidity
    00:00 -4°C° 0 mm 1 mps 683 mmHg 92%
    01:00 -4°C° 0 mm 1 mps 683 mmHg 92%
    02:00 -4°C° 0 mm 1 mps 683 mmHg 91%
    03:00 -4°C° 0 mm 1 mps 684 mmHg 91%
    04:00 -6°C° 0 mm 1 mps 684 mmHg 90%
    05:00 -6°C° 0 mm 1 mps 684 mmHg 89%
    06:00 -6°C° 0 mm 1 mps 684 mmHg 87%
    07:00 -3°C° 0 mm 1 mps 684 mmHg 85%
    08:00 -1°C° 0 mm 1 mps 685 mmHg 81%
    09:00 +1°C° 0 mm 1 mps 685 mmHg 76%
    10:00 +3°C° 0 mm 1 mps 685 mmHg 72%
    11:00 +3°C° 0 mm 1 mps 685 mmHg 72%
    12:00 +4°C° 0 mm 1 mps 685 mmHg 72%
    13:00 +5°C° 0 mm 1 mps 685 mmHg 72%
    14:00 +5°C° 0 mm 1 mps 685 mmHg 72%
    15:00 +5°C° 0 mm 1 mps 685 mmHg 72%
    16:00 +4°C° 0 mm 1 mps 685 mmHg 73%
    17:00 +2°C° 0 mm 1 mps 685 mmHg 78%
    18:00 0°C° 0 mm 1 mps 685 mmHg 82%
    19:00 -2°C° 0 mm 1 mps 685 mmHg 87%
    20:00 -2°C° 0 mm 1 mps 685 mmHg 86%
    21:00 -2°C° 0 mm 1 mps 685 mmHg 86%
    22:00 -3°C° 0 mm 1 mps 686 mmHg 85%
    23:00 -3°C° 0 mm 1 mps 686 mmHg 83%

    Tomorrow, 21 March, Thursday

    Time Temperature Precipitation Wind Pressure Humidity
    00:00 -3°C° 0 mm 1 mps 686 mmHg 81%
    01:00 -5°C° 0 mm 2 mps 686 mmHg 79%
    02:00 -5°C° 0 mm 2 mps 686 mmHg 77%
    03:00 -5°C° 0 mm 2 mps 686 mmHg 75%
    04:00 -5°C° 0 mm 2 mps 685 mmHg 72%
    05:00 -5°C° 0 mm 2 mps 686 mmHg 71%
    06:00 -4°C° 0 mm 2 mps 686 mmHg 69%
    07:00 -4°C° 0 mm 2 mps 686 mmHg 67%
    08:00 +1°C° 0 mm 1 mps 686 mmHg 66%
    09:00 +4°C° 0 mm 1 mps 686 mmHg 65%
    10:00 +7°C° 0 mm 1 mps 687 mmHg 65%
    11:00 +8°C° 0 mm 1 mps 686 mmHg 65%
    12:00 +9°C° 0 mm 1 mps 686 mmHg 65%
    13:00 +10°C° 0 mm 1 mps 686 mmHg 65%
    14:00 +10°C° 0 mm 1 mps 686 mmHg 68%
    15:00 +10°C° 0 mm 1 mps 685 mmHg 71%
    16:00 +10°C° 0 mm 1 mps 685 mmHg 75%
    17:00 +8°C° 0 mm 1 mps 685 mmHg 77%
    18:00 +6°C° 0 mm 1 mps 685 mmHg 80%
    19:00 +4°C° 0 mm 1 mps 684 mmHg 83%
    20:00 +3°C° 0 mm 1 mps 685 mmHg 80%
    21:00 +2°C° 0 mm 2 mps 685 mmHg 77%
    22:00 +1°C° 0 mm 2 mps 685 mmHg 74%
    23:00 +1°C° 0 mm 2 mps 685 mmHg 71%

    Day after tomorrow, 22 March, Friday

    Time Temperature Precipitation Wind Pressure Humidity
    00:00 +1°C° 0 mm 2 mps 685 mmHg 68%
    01:00 +1°C° 0 mm 2 mps 685 mmHg 64%
    02:00 +1°C° 0 mm 2 mps 685 mmHg 63%
    03:00 +1°C° 0 mm 2 mps 685 mmHg 61%
    04:00 +1°C° 0 mm 2 mps 684 mmHg 59%
    05:00 +1°C° 0 mm 2 mps 684 mmHg 58%
    06:00 +1°C° 0 mm 2 mps 684 mmHg 57%
    07:00 +1°C° 0 mm 2 mps 685 mmHg 57%
    08:00 +5°C° 0 mm 1 mps 685 mmHg 58%
    09:00 +8°C° 0 mm 1 mps 685 mmHg 60%
    10:00 +11°C° 0 mm 1 mps 685 mmHg 61%
    11:00 +11°C° 0 mm 0 mps 685 mmHg 61%
    12:00 +12°C° 0 mm 0 mps 685 mmHg 61%
    13:00 +13°C° 0 mm 0 mps 685 mmHg 61%
    14:00 +13°C° 0 mm 0 mps 685 mmHg 65%
    15:00 +13°C° 0 mm 1 mps 684 mmHg 69%
    16:00 +13°C° 0 mm 1 mps 684 mmHg 73%
    17:00 +11°C° 0 mm 1 mps 684 mmHg 77%
    18:00 +8°C° 0 mm 1 mps 683 mmHg 81%
    19:00 +6°C° 0 mm 1 mps 683 mmHg 84%
    20:00 +5°C° 0 mm 1 mps 683 mmHg 82%
    21:00 +4°C° 0 mm 2 mps 684 mmHg 80%
    22:00 +4°C° 0 mm 2 mps 684 mmHg 78%
    23:00 +3°C° 0 mm 2 mps 684 mmHg 76%

    23 March, Saturday

    Time Temperature Precipitation Wind Pressure Humidity
    00:00 +3°C° 0 mm 2 mps 684 mmHg 74%
    01:00 +3°C° 0 mm 2 mps 684 mmHg 72%
    02:00 +3°C° 0 mm 2 mps 684 mmHg 71%
    03:00 +3°C° 0 mm 2 mps 684 mmHg 71%
    04:00 +2°C° 0 mm 2 mps 684 mmHg 70%
    05:00 +3°C° 0 mm 2 mps 684 mmHg 70%
    06:00 +3°C° 0 mm 2 mps 684 mmHg 71%
    07:00 +3°C° 0 mm 2 mps 684 mmHg 71%
    08:00 +7°C° 0 mm 1 mps 684 mmHg 69%
    09:00 +9°C° 0 mm 1 mps 684 mmHg 66%
    10:00 +11°C° 0 mm 0 mps 685 mmHg 64%
    11:00 +13°C° 0 mm 1 mps 684 mmHg 63%
    12:00 +13°C° 0 mm 1 mps 684 mmHg 62%
    13:00 +14°C° 0 mm 1 mps 684 mmHg 61%
    14:00 +14°C° 0 mm 1 mps 684 mmHg 64%
    15:00 +14°C° 0 mm 1 mps 683 mmHg 66%
    16:00 +14°C° 0 mm 1 mps 683 mmHg 68%
    17:00 +11°C° 0 mm 1 mps 683 mmHg 75%
    18:00 +9°C° 0 mm 1 mps 682 mmHg 81%
    19:00 +7°C° 0 mm 1 mps 682 mmHg 87%
    20:00 +6°C° 0 mm 1 mps 682 mmHg 86%
    21:00 +6°C° 0 mm 1 mps 682 mmHg 84%
    22:00 +5°C° 0 mm 2 mps 683 mmHg 83%
    23:00 +4°C° 0 mm 2 mps 682 mmHg 81%

    24 March, Sunday

    Time Temperature Precipitation Wind Pressure Humidity
    00:00 +4°C° 0 mm 2 mps 682 mmHg 79%
    01:00 +4°C° 0 mm 2 mps 682 mmHg 77%
    02:00 +4°C° 0 mm 2 mps 682 mmHg 75%
    03:00 +4°C° 0 mm 2 mps 681 mmHg 74%
    04:00 +3°C° 0 mm 2 mps 681 mmHg 73%
    05:00 +4°C° 0 mm 2 mps 681 mmHg 72%
    06:00 +4°C° 0 mm 2 mps 681 mmHg 71%
    07:00 +4°C° 0 mm 2 mps 681 mmHg 70%
    08:00 +8°C° 0 mm 1 mps 681 mmHg 65%
    09:00 +11°C° 0 mm 1 mps 682 mmHg 61%
    10:00 +13°C° 0 mm 1 mps 682 mmHg 56%
    11:00 +14°C° 0 mm 1 mps 682 mmHg 55%
    12:00 +15°C° 0 mm 1 mps 682 mmHg 54%
    13:00 +15°C° 0 mm 1 mps 681 mmHg 53%
    14:00 +15°C° 0 mm 1 mps 681 mmHg 56%
    15:00 +14°C° 0 mm 1 mps 680 mmHg 60%
    16:00 +14°C° 0 mm 1 mps 680 mmHg 63%
    17:00 +12°C° 0 mm 1 mps 680 mmHg 73%
    18:00 +9°C° 0 mm 1 mps 679 mmHg 82%
    19:00 +6°C° 0 mm 0 mps 679 mmHg 91%
    20:00 +6°C° 0 mm 0 mps 679 mmHg 92%
    21:00 +7°C° 0 mm 1 mps 680 mmHg 92%
    22:00 +7°C° 0 mm 1 mps 680 mmHg 92%
    23:00 +7°C° 0 mm 1 mps 680 mmHg 93%

    25 March, Monday

    Time Temperature Precipitation Wind Pressure Humidity
    00:00 +6°C° 0 mm 1 mps 680 mmHg 94%
    01:00 +6°C° 0 mm 1 mps 679 mmHg 94%
    02:00 +6°C° 0 mm 1 mps 679 mmHg 94%
    03:00 +6°C° 0 mm 1 mps 679 mmHg 94%
    04:00 +5°C° 0 mm 1 mps 679 mmHg 94%
    05:00 +6°C° 0.1 mm 1 mps 679 mmHg 93%
    06:00 +6°C° 0.1 mm 1 mps 679 mmHg 93%
    07:00 +6°C° 0.1 mm 1 mps 679 mmHg 92%
    08:00 +7°C° 0.3 mm 1 mps 679 mmHg 90%
    09:00 +8°C° 0.3 mm 1 mps 679 mmHg 88%
    10:00 +8°C° 0.3 mm 1 mps 679 mmHg 86%
    11:00 +7°C° 0.3 mm 2 mps 679 mmHg 85%
    12:00 +7°C° 0.3 mm 2 mps 678 mmHg 85%
    13:00 +7°C° 0.3 mm 2 mps 678 mmHg 85%
    14:00 +7°C° 0.3 mm 2 mps 677 mmHg 87%
    15:00 +6°C° 0.3 mm 2 mps 677 mmHg 89%
    16:00 +6°C° 0.3 mm 2 mps 677 mmHg 91%
    17:00 +5°C° 0.4 mm 2 mps 677 mmHg 93%
    18:00 +4°C° 0.4 mm 2 mps 677 mmHg 94%
    19:00 +4°C° 0.4 mm 2 mps 677 mmHg 96%
    20:00 +3°C° 0.4 mm 2 mps 677 mmHg 96%
    21:00 +3°C° 0.4 mm 2 mps 678 mmHg 96%
    22:00 +2°C° 0.4 mm 2 mps 678 mmHg 96%
    23:00 +2°C° 0.3 mm 2 mps 678 mmHg 96%
    Show more